• In Italy
  • List of Countries
  • For 7 days
  • Water Temperature
  • Satellite Maps
  • Weather Map
  • Weather Widgets
  • user-avatar
    Login

    Hourly Weather Madinat 'Isa

    Today, 20 February, Tuesday

    Time Temperature Precipitation Wind Pressure Humidity
    00:00 +19°C° 0 mm 4 mps 761 mmHg 58%
    01:00 +19°C° 0 mm 5 mps 761 mmHg 58%
    02:00 +19°C° 0 mm 5 mps 761 mmHg 58%
    03:00 +19°C° 0 mm 5 mps 760 mmHg 56%
    04:00 +19°C° 0 mm 5 mps 761 mmHg 56%
    05:00 +19°C° 0 mm 5 mps 761 mmHg 56%
    06:00 +19°C° 0 mm 5 mps 761 mmHg 55%
    07:00 +20°C° 0 mm 6 mps 761 mmHg 52%
    08:00 +20°C° 0 mm 6 mps 761 mmHg 48%
    09:00 +21°C° 0 mm 6 mps 761 mmHg 45%
    10:00 +22°C° 0 mm 6 mps 761 mmHg 42%
    11:00 +23°C° 0 mm 6 mps 761 mmHg 39%
    12:00 +24°C° 0 mm 6 mps 761 mmHg 36%
    13:00 +23°C° 0 mm 6 mps 760 mmHg 37%
    14:00 +23°C° 0 mm 7 mps 760 mmHg 38%
    15:00 +23°C° 0 mm 7 mps 760 mmHg 38%
    16:00 +22°C° 0 mm 6 mps 759 mmHg 42%
    17:00 +21°C° 0 mm 6 mps 759 mmHg 47%
    18:00 +20°C° 0 mm 6 mps 759 mmHg 51%
    19:00 +20°C° 0 mm 5 mps 760 mmHg 52%
    20:00 +20°C° 0 mm 5 mps 760 mmHg 52%
    21:00 +20°C° 0 mm 5 mps 760 mmHg 53%
    22:00 +20°C° 0 mm 4 mps 760 mmHg 54%
    23:00 +19°C° 0 mm 4 mps 760 mmHg 54%

    Tomorrow, 21 February, Wednesday

    Time Temperature Precipitation Wind Pressure Humidity
    00:00 +19°C° 0 mm 4 mps 760 mmHg 55%
    01:00 +19°C° 0 mm 4 mps 760 mmHg 55%
    02:00 +19°C° 0 mm 4 mps 759 mmHg 55%
    03:00 +19°C° 0 mm 4 mps 759 mmHg 55%
    04:00 +19°C° 0 mm 4 mps 759 mmHg 55%
    05:00 +19°C° 0 mm 4 mps 759 mmHg 55%
    06:00 +18°C° 0 mm 4 mps 759 mmHg 55%
    07:00 +19°C° 0 mm 4 mps 760 mmHg 52%
    08:00 +20°C° 0 mm 3 mps 760 mmHg 48%
    09:00 +21°C° 0 mm 3 mps 760 mmHg 45%
    10:00 +22°C° 0 mm 3 mps 760 mmHg 41%
    11:00 +24°C° 0 mm 3 mps 760 mmHg 38%
    12:00 +25°C° 0 mm 3 mps 759 mmHg 35%
    13:00 +25°C° 0 mm 3 mps 759 mmHg 35%
    14:00 +25°C° 0 mm 3 mps 758 mmHg 35%
    15:00 +25°C° 0 mm 3 mps 758 mmHg 35%
    16:00 +24°C° 0 mm 3 mps 758 mmHg 39%
    17:00 +22°C° 0 mm 3 mps 758 mmHg 44%
    18:00 +22°C° 0 mm 3 mps 758 mmHg 48%
    19:00 +22°C° 0 mm 3 mps 758 mmHg 49%
    20:00 +21°C° 0 mm 2 mps 758 mmHg 51%
    21:00 +21°C° 0 mm 2 mps 759 mmHg 53%
    22:00 +21°C° 0 mm 2 mps 758 mmHg 53%
    23:00 +21°C° 0 mm 2 mps 758 mmHg 53%

    Day after tomorrow, 22 February, Thursday

    Time Temperature Precipitation Wind Pressure Humidity
    00:00 +21°C° 0 mm 2 mps 758 mmHg 53%
    01:00 +21°C° 0 mm 2 mps 758 mmHg 53%
    02:00 +21°C° 0 mm 3 mps 757 mmHg 54%
    03:00 +21°C° 0 mm 3 mps 757 mmHg 55%
    04:00 +21°C° 0 mm 3 mps 757 mmHg 56%
    05:00 +21°C° 0 mm 3 mps 757 mmHg 57%
    06:00 +21°C° 0 mm 3 mps 757 mmHg 58%
    07:00 +21°C° 0 mm 2 mps 757 mmHg 55%
    08:00 +23°C° 0 mm 2 mps 758 mmHg 53%
    09:00 +24°C° 0 mm 1 mps 758 mmHg 51%
    10:00 +24°C° 0 mm 1 mps 758 mmHg 48%
    11:00 +25°C° 0 mm 2 mps 758 mmHg 45%
    12:00 +25°C° 0 mm 2 mps 758 mmHg 42%
    13:00 +25°C° 0 mm 2 mps 757 mmHg 42%
    14:00 +25°C° 0 mm 3 mps 757 mmHg 42%
    15:00 +26°C° 0 mm 3 mps 757 mmHg 42%
    16:00 +25°C° 0 mm 3 mps 756 mmHg 43%
    17:00 +25°C° 0 mm 4 mps 756 mmHg 44%
    18:00 +25°C° 0 mm 4 mps 756 mmHg 46%
    19:00 +25°C° 0 mm 4 mps 756 mmHg 48%
    20:00 +25°C° 0 mm 4 mps 756 mmHg 51%
    21:00 +23°C° 0 mm 4 mps 756 mmHg 53%
    22:00 +23°C° 0 mm 4 mps 756 mmHg 55%
    23:00 +22°C° 0 mm 4 mps 756 mmHg 57%

    23 February, Friday

    Time Temperature Precipitation Wind Pressure Humidity
    00:00 +22°C° 0 mm 4 mps 756 mmHg 59%
    01:00 +21°C° 0 mm 3 mps 756 mmHg 61%
    02:00 +21°C° 0 mm 2 mps 756 mmHg 64%
    03:00 +21°C° 0 mm 1 mps 755 mmHg 66%
    04:00 +21°C° 0 mm 1 mps 756 mmHg 64%
    05:00 +20°C° 0 mm 0 mps 756 mmHg 62%
    06:00 +20°C° 0 mm 0 mps 756 mmHg 61%
    07:00 +23°C° 0 mm 1 mps 757 mmHg 56%
    08:00 +24°C° 0 mm 1 mps 757 mmHg 52%
    09:00 +25°C° 0 mm 1 mps 758 mmHg 48%
    10:00 +26°C° 0 mm 1 mps 758 mmHg 45%
    11:00 +27°C° 0 mm 1 mps 757 mmHg 43%
    12:00 +27°C° 0 mm 1 mps 757 mmHg 41%
    13:00 +28°C° 0 mm 2 mps 756 mmHg 40%
    14:00 +28°C° 0 mm 2 mps 755 mmHg 39%
    15:00 +29°C° 0 mm 3 mps 755 mmHg 38%
    16:00 +28°C° 0 mm 3 mps 755 mmHg 41%
    17:00 +27°C° 0 mm 4 mps 755 mmHg 45%
    18:00 +26°C° 0 mm 5 mps 755 mmHg 49%
    19:00 +25°C° 0 mm 5 mps 755 mmHg 52%
    20:00 +25°C° 0 mm 4 mps 756 mmHg 54%
    21:00 +23°C° 0 mm 4 mps 756 mmHg 57%
    22:00 +23°C° 0 mm 4 mps 756 mmHg 58%
    23:00 +23°C° 0 mm 4 mps 756 mmHg 58%

    24 February, Saturday

    Time Temperature Precipitation Wind Pressure Humidity
    00:00 +23°C° 0 mm 4 mps 755 mmHg 59%
    01:00 +23°C° 0 mm 4 mps 755 mmHg 60%
    02:00 +22°C° 0 mm 4 mps 755 mmHg 62%
    03:00 +22°C° 0 mm 4 mps 755 mmHg 63%
    04:00 +21°C° 0 mm 4 mps 755 mmHg 64%
    05:00 +21°C° 0 mm 4 mps 756 mmHg 66%
    06:00 +21°C° 0 mm 4 mps 756 mmHg 67%
    07:00 +22°C° 0.1 mm 4 mps 757 mmHg 61%
    08:00 +23°C° 0.1 mm 5 mps 757 mmHg 55%
    09:00 +25°C° 0.1 mm 5 mps 758 mmHg 48%
    10:00 +26°C° 0 mm 5 mps 757 mmHg 45%
    11:00 +27°C° 0 mm 5 mps 757 mmHg 41%
    12:00 +28°C° 0 mm 6 mps 756 mmHg 38%
    13:00 +28°C° 0 mm 6 mps 756 mmHg 39%
    14:00 +28°C° 0 mm 6 mps 755 mmHg 40%
    15:00 +28°C° 0 mm 6 mps 755 mmHg 41%
    16:00 +27°C° 0 mm 6 mps 755 mmHg 46%
    17:00 +26°C° 0 mm 6 mps 755 mmHg 50%
    18:00 +24°C° 0 mm 6 mps 756 mmHg 55%
    19:00 +25°C° 0 mm 5 mps 756 mmHg 56%
    20:00 +23°C° 0 mm 4 mps 756 mmHg 58%
    21:00 +24°C° 0 mm 3 mps 757 mmHg 60%
    22:00 +24°C° 0.2 mm 3 mps 757 mmHg 62%
    23:00 +22°C° 0.2 mm 4 mps 756 mmHg 63%

    25 February, Sunday

    Time Temperature Precipitation Wind Pressure Humidity
    00:00 +22°C° 0.2 mm 4 mps 756 mmHg 65%
    01:00 +22°C° 0.2 mm 4 mps 756 mmHg 67%
    02:00 +22°C° 0.2 mm 4 mps 756 mmHg 69%
    03:00 +21°C° 0.2 mm 3 mps 755 mmHg 71%
    04:00 +21°C° 0.4 mm 3 mps 756 mmHg 72%
    05:00 +21°C° 0.4 mm 3 mps 756 mmHg 73%
    06:00 +21°C° 0.4 mm 2 mps 756 mmHg 74%
    07:00 +21°C° 0.4 mm 2 mps 757 mmHg 71%
    08:00 +23°C° 0.4 mm 2 mps 757 mmHg 69%
    09:00 +23°C° 0.4 mm 2 mps 758 mmHg 67%
    10:00 +24°C° 0 mm 3 mps 758 mmHg 63%
    11:00 +25°C° 0 mm 3 mps 757 mmHg 59%
    12:00 +26°C° 0 mm 3 mps 757 mmHg 55%
    13:00 +26°C° 0 mm 3 mps 757 mmHg 55%
    14:00 +26°C° 0 mm 4 mps 756 mmHg 56%
    15:00 +26°C° 0 mm 4 mps 756 mmHg 57%
    16:00 +26°C° 0 mm 4 mps 756 mmHg 62%
    17:00 +25°C° 0 mm 4 mps 756 mmHg 67%
    18:00 +23°C° 0 mm 4 mps 757 mmHg 72%
    19:00 +23°C° 0 mm 4 mps 757 mmHg 73%
    20:00 +22°C° 0 mm 4 mps 757 mmHg 75%
    21:00 +22°C° 0 mm 5 mps 757 mmHg 76%
    22:00 +22°C° 0 mm 5 mps 757 mmHg 78%
    23:00 +22°C° 0 mm 5 mps 757 mmHg 79%
    Show more